Location: Morisset
(33.1080°S, 151.4871°E)
Time: 14:45:23
(UTC+00:00)

Daily predictions for brighter satellites

Satellite Brightness Start Highest point End
(mag) Time Altitude Azimuth Time Altitude Azimuth Time Altitude Azimuth
Resurs 01 Rocket 4.5 12:09:21 10° SSW 12:10:22 15° SSW 12:10:22 15° SSW
Cosmos 2263 Rocket 4.4 12:28:03 20° S 12:28:03 20° S 12:29:50 10° S
SL-16 R/B 4.3 12:21:10 10° SW 12:23:21 21° SW 12:23:21 21° SW
ATLAS 2AS CENTAUR R/B 4.5 13:35:30 22° SSE 13:35:30 22° SSE 13:37:33 10° SSE
CZ-4C R/B 4.0 14:09:14 40° SSE 14:09:14 40° SSE 14:13:32 10° SSE
ATLAS 3B R/B 4.1 14:00:35 10° SSW 14:05:21 32° SSE 14:05:21 32° SSE
CZ-2D R/B 4.5 15:11:17 17° SSW 15:11:17 17° SSW 15:12:27 10° SSW
Cosmos 2082 Rocket 4.0 15:07:27 10° S 15:12:09 26° ESE 15:12:13 26° ESE
Cosmos 1943 Rocket 4.3 15:20:15 18° E 15:20:15 18° E 15:23:08 10° ESE
SL-16 R/B 4.4 15:17:49 10° SE 15:22:10 20° E 15:22:46 19° ENE
COSMOS 2455 4.4 15:28:21 28° SSW 15:28:21 28° SSW 15:31:43 10° S
ATLAS 5 CENTAUR R/B 3.4 15:30:23 48° E 15:30:23 48° E 15:36:10 10° SE
Cosmos 2278 Rocket 3.9 15:36:23 26° SSW 15:36:23 26° SSW 15:39:15 10° S
Lacrosse 5 3.6 15:36:56 29° SSE 15:36:56 29° SSE 15:39:31 10° SE
ATLAS CENTAUR R/B 4.0 15:31:58 10° S 15:35:37 21° SE 15:35:45 21° SE
ARIANE 5 R/B 3.8 15:41:09 38° SSE 15:41:09 38° SSE 15:44:47 10° S
USA 215 3.6 15:42:05 10° SE 15:48:08 58° SSW 15:48:08 58° SSW
Milstar 3 Cent rocket 4.1 16:01:58 26° NE 16:01:58 26° NE 16:06:19 10° ENE
ADEOS II 4.1 16:07:18 17° SW 16:07:18 17° SW 16:08:37 10° SSW
Cosmos 2297 4.1 16:11:00 60° S 16:11:00 60° S 16:15:49 10° SSE
Spot 4 Rocket 4.2 16:23:59 68° S 16:23:59 68° S 16:28:31 10° SSW
Hubble Space Telescope 3.5 16:28:49 12° ENE 16:28:49 12° ENE 16:29:08 10° ENE
In-Cosmos 22 4.0 16:21:26 10° S 16:26:43 80° SE 16:26:43 80° SE
Okean 1 Rocket 4.2 16:27:17 38° ENE 16:27:37 38° E 16:31:49 10° SSE
Okean 2 Rocket 4.4 16:35:17 32° SSW 16:35:17 32° SSW 16:38:02 10° S
SL-4 R/B 4.2 16:36:20 21° SW 16:36:39 21° SSW 16:40:20 10° SSE
Cosmos 2369 Rocket 2.5 16:35:53 50° NNE 16:37:01 60° ENE 16:42:34 10° SSE
Cosmos 2251 Rocket 3.5 16:31:45 10° SSW 16:37:11 81° ESE 16:38:32 52° NNE
Yuri Rocket 4.3 16:37:21 49° N 16:37:21 49° N 16:42:43 10° E
BREEZE-M DEB (TANK) 2.9 16:38:06 63° E 16:38:06 63° E 16:40:25 10° ESE
Cosmos 1072 Rocket 4.3 16:37:02 59° N 16:38:19 88° ENE 16:44:33 10° S
Cosmos 1536 Rocket 3.8 16:34:05 10° S 16:38:29 66° ESE 16:38:29 66° ESE
CZ-2C R/B 3.8 16:41:20 42° S 16:41:20 42° S 16:43:59 10° S
IDEFIX/ARIANE 42P 3.4 16:44:00 36° SW 16:44:00 36° SW 16:47:25 10° SSW
SL-24 R/B - RUBIN 2 4.1 16:48:33 47° NE 16:48:59 49° ENE 16:53:08 10° SE
Cosmos 1766 3.5 16:50:03 66° SE 16:50:03 66° SE 16:53:35 10° S
Cosmos 1805 3.8 16:50:55 52° S 16:50:55 52° S 16:54:00 10° S
Cosmos 1624 Rocket 4.5 16:48:34 39° NNE 16:50:19 58° ENE 16:55:30 10° SSE
Cosmos 371 Rocket 3.9 16:49:09 38° NNE 16:50:37 52° ENE 16:55:22 10° SSE
Cosmos 2034 Rocket 4.1 16:49:36 29° N 16:53:02 74° E 16:59:27 10° S
Cosmos 2082 Rocket 3.4 16:51:05 10° SW 16:53:58 26° WSW 16:53:58 26° WSW
CZ-2C R/B 2.7 16:53:02 17° NNE 16:56:31 61° ESE 17:01:06 10° S
CZ-4C R/B 3.4 16:53:15 10° S 16:57:44 78° WSW 16:57:55 76° WNW
Cosmos 1943 Rocket 2.5 17:01:47 44° W 17:02:34 47° WSW 17:08:04 10° S
Nadezhda 4 Rocket 4.4 16:56:47 10° S 17:02:58 61° E 17:09:01 10° NNE
KORONAS-FOTON 3.9 16:59:30 10° S 17:03:06 67° SW 17:03:06 67° SW
SL-16 R/B 2.7 16:59:57 10° S 17:06:00 53° WSW 17:07:51 40° WNW
Cosmos 1626 3.1 17:04:29 10° S 17:08:08 47° E 17:11:13 13° NNE
IKONOS-2 4.5 17:03:49 10° S 17:08:09 69° WSW 17:08:43 60° WNW
ATLAS CENTAUR R/B 2.4 17:08:00 35° NE 17:08:13 36° ENE 17:12:20 10° SE
IRAS Rocket 4.5 17:03:46 10° SSE 17:09:26 69° ENE 17:13:20 20° N
Cosmos 1733 3.3 17:10:18 59° WSW 17:10:18 59° WSW 17:14:02 10° S
FALCON 9 DEB 4.0 17:11:19 37° NE 17:11:19 37° NE 17:14:18 10° ESE
Cosmos 332 Rocket 4.3 17:08:59 25° N 17:11:39 56° ENE 17:16:23 10° SSE
FALCON 9 DEB 3.7 17:13:14 43° NE 17:13:14 43° NE 17:16:17 10° ESE
Cosmos 407 Rocket 4.3 17:08:14 10° S 17:13:21 53° ESE 17:18:22 10° NNE
Cosmos 1464 Rocket 4.2 17:11:35 38° NW 17:13:32 50° W 17:19:33 10° S
Cosmos 1674 3.2 17:09:54 10° SSW 17:12:58 43° WSW 17:12:58 43° WSW
ATLAS 5 CENTAUR R/B 3.7 17:11:56 26° W 17:14:25 33° SW 17:20:30 10° S
ATLAS CENTAUR R/B 3.4 17:10:19 10° SW 17:11:44 18° SW 17:11:44 18° SW
Lacrosse 5 4.1 17:16:08 11° WSW 17:18:11 13° SSW 17:20:34 10° S
Iridium 4 Rocket 3.3 17:19:43 44° WNW 17:20:18 48° W 17:24:44 10° S
Cosmos 1656 Rocket 3.6 17:20:02 24° NNW 17:23:26 82° ENE 17:28:59 10° SSE
FALCON 9 DEB 3.1 17:27:20 50° N 17:27:54 63° NE 17:31:04 10° SE
SL-14 R/B 3.3 17:25:06 10° S 17:29:02 77° E 17:32:56 10° N
NOSS 3-1 (C) 4.3 17:24:02 10° SSW 17:29:51 46° SE 17:34:55 10° NE
Cosmos 1420 Rocket 4.0 17:30:27 17° NNW 17:34:34 82° ENE 17:39:54 10° SSE
FALCON 9 DEB 2.8 17:36:33 45° NW 17:37:23 88° WSW 17:40:36 10° SE
PSLV R/B 3.9 17:35:47 20° NNW 17:38:28 44° W 17:42:42 10° SSW
Meteor 2-5 Rocket 3.6 17:33:11 10° SSW 17:38:43 66° W 17:44:13 10° N
Cosmos 1758 3.7 17:34:49 10° N 17:38:45 64° E 17:42:45 10° SSE
OAO 3 Rocket 3.4 17:36:20 21° WSW 17:39:29 69° S 17:44:19 10° E
SL-19 R/B 4.3 17:35:07 10° SSE 17:40:45 88° WSW 17:46:31 10° NNW
Cosmos 1818 4.2 17:39:34 24° WNW 17:42:09 39° WSW 17:47:12 10° SSE
ALOS 2.6 17:37:39 10° NNE 17:42:19 72° ESE 17:47:02 10° S
Meteor 1-22 Rocket 4.4 17:39:37 21° NW 17:42:55 48° W 17:48:17 10° S
Cosmos 304 Rocket 3.7 17:43:44 14° NNW 17:47:52 82° WSW 17:52:45 10° SSE
OAO 2 Rocket 3.8 17:46:16 21° NW 17:49:31 52° NNE 17:54:38 10° E
GP-B 3.1 17:46:52 10° S 17:51:23 69° W 17:55:48 10° NNW
SL-08 R/B 3.2 17:49:09 10° S 17:53:52 81° WSW 17:58:28 10° NNW
USA 276 2.0 17:53:03 10° SW 17:56:17 71° NW 17:59:30 10° NE
Meteor 2-10 4.3 17:50:49 10° N 17:56:30 85° E 18:02:20 10° S
Delta 2 Rocket 3.7 17:54:10 13° WSW 17:58:05 61° S 18:01:59 10° E
Cosmos 2026 Rocket 4.2 17:53:06 10° S 17:59:25 80° E 18:05:45 10° N
USA 267 3.3 17:53:10 10° NE 17:59:44 87° NW 18:06:22 10° SW
Hubble Space Telescope 2.3 18:04:10 16° NW 18:06:00 20° NNW 18:09:06 10° NNE
FENGYUN 3A 3.7 18:01:23 10° N 18:06:44 60° W 18:12:08 10° SSW
USA 40 PKM 4.3 18:03:43 10° SW 18:08:02 63° NW 18:11:30 10° NNE
Atlas Centaur 2 2.7 18:05:59 12° NW 18:09:17 26° NNE 18:12:30 10° ENE
CZ-4B R/B 3.6 18:05:48 10° N 18:09:28 73° WNW 18:13:11 10° SSW
Cosmos 676 Rocket 4.1 18:04:46 10° SSW 18:10:10 85° ESE 18:15:27 10° NNE
ADEOS 3.8 18:05:53 10° N 18:10:54 47° W 18:16:00 10° SSW
BREEZE-M DEB (TANK) 4.4 18:03:58 10° NW 18:11:35 51° NE 18:14:34 10° ESE
Cosmos 44 4.0 18:06:30 10° NNW 18:11:41 59° ENE 18:16:41 10° SE
Cosmos 1544 Rocket 3.6 18:08:05 10° NNW 18:12:31 68° W 18:16:58 10° S
Cosmos 1470 3.7 18:10:08 11° NW 18:13:32 30° W 18:17:06 10° SSW
BREEZE-M DEB (TANK) 3.2 18:14:29 11° WNW 18:18:33 28° SW 18:20:44 10° SSE
ASTRO E2 3.4 18:16:19 11° NW 18:19:56 42° NNE 18:23:46 10° E
Meteor PRIRODA 4.3 18:16:40 10° NNE 18:20:21 62° ESE 18:24:07 10° S
Cosmos 1356 Rocket 3.5 18:16:44 10° N 18:20:46 78° E 18:24:50 10° S
Cosmos 2369 Rocket 3.9 18:17:56 10° W 18:21:25 16° WSW 18:24:55 10° SSW
Cosmos 2279 Rocket 4.0 18:16:06 10° N 18:22:18 78° W 18:28:37 10° S
Cosmos 1953 2.3 18:19:38 10° N 18:23:42 74° W 18:27:51 10° S
EXPRESS MD2 3.9 18:20:33 10° WSW 18:23:43 23° WNW 18:25:52 10° N
Cosmos 1452 Rocket 3.7 18:19:07 10° NNW 18:24:17 55° WSW 18:29:30 10° S
NOSS 2-3 (D) 4.4 18:19:37 10° SSW 18:26:07 80° ESE 18:31:04 10° NNE
Cosmos 1484 Rocket 3.5 18:23:16 10° NNW 18:26:32 29° W 18:29:53 10° SW
Okean 1-7 Rocket 3.9 18:25:04 10° SSW 18:29:33 52° W 18:34:00 10° NNW
Cosmos 1892 Rocket 4.3 18:28:01 10° SSW 18:31:54 31° W 18:35:43 10° NNW
Cosmos 1726 3.0 18:30:17 10° NW 18:33:31 29° W 18:36:47 10° SSW
Yuri Rocket 3.9 18:28:27 10° W 18:34:24 50° N 18:38:55 10° ENE
BREEZE-M DEB (TANK) 4.5 18:32:00 10° SW 18:44:58 35° WNW 18:49:08 10° N
FALCON 9 R/B 4.1 18:32:43 10° W 19:15:10 57° NNW 19:21:45 10° NE
